Weather History for Wheaton NDB, MN

Change the Weather History Date:

Wednesday, November 9, 2011

  Actual Average Record
Temperature  
Mean Temperature 33 °F -  
Max Temperature 42 °F 41 °F 66 °F (2001)
Min Temperature 24 °F 25 °F 8 °F (1973)
Degree Days  
Heating Degree Days 32    
Moisture  
Dew Point 22 °F    
Average Humidity 65    
Maximum Humidity 86    
Minimum Humidity 42    
Precipitation  
Precipitation 0.00 in - - ()
Sea Level Pressure  
Sea Level Pressure 30.17 in    
Wind  
Wind Speed 10 mph (WNW)    
Max Wind Speed 26 mph    
Max Gust Speed 34 mph    
Visibility 10 miles    
Events      
Averages and records for this station are not official NWS values.
T = Trace of Precipitation, MM = Missing Value Source: NWS Daily Summary

Daily Weather History Graph

Daily Weather History Graph

Search for Another Location

Airport:

Trip Planner

Search our weather history database for the weather conditions in past years. The results will help you decide how hot, cold, wet, or windy it might be!

Date:

Astronomy

Nov. 09, 2011 Rise Set
Actual Time 7:17 AM CST 5:02 PM CST
Civil Twilight 6:45 AM CST 5:33 PM CST
Nautical Twilight 6:09 AM CST 6:09 PM CST
Astronomical Twilight 5:34 AM CST 6:44 PM CST
Moon 4:13 PM CST (11/9) 6:13 AM CST (11/9)
Length of Visible Light 10h 48m
Length of Day
9h 44m
Waxing Gibbous, 99% of the Moon is Illuminated
Nov 9
Waxing Gibbous
Nov 10
Full
Nov 18
Last Quarter
Nov 25
New
Dec 2
First Quarter

Hourly Weather History & Observations

Time (CST) Temp. Windchill Dew Point Humidity Pressure Visibility Wind Dir Wind Speed Gust Speed Precip Events Conditions
12:15 AM 30.2 °F 24.3 °F 21.2 °F 69% 30.17 in 10.0 mi South 5.8 mph - N/A   Clear
12:35 AM 30.2 °F 26.7 °F 21.2 °F 69% 30.17 in 10.0 mi SSE 3.5 mph - N/A   Clear
12:55 AM 28.4 °F 20.4 °F 19.4 °F 69% 30.16 in 10.0 mi SSE 8.1 mph - N/A   Clear
1:15 AM 24.8 °F 16.1 °F 19.4 °F 80% 30.17 in 10.0 mi SSE 8.1 mph - N/A   Clear
1:35 AM 24.8 °F 16.1 °F 17.6 °F 74% 30.17 in 10.0 mi SSE 8.1 mph - N/A   Clear
1:55 AM 26.6 °F 21.2 °F 19.4 °F 74% 30.17 in 10.0 mi WSW 4.6 mph - N/A   Clear
2:16 AM 28.4 °F - 19.4 °F 69% 30.17 in 10.0 mi Calm Calm - N/A   Clear
2:35 AM 26.6 °F 22.6 °F 19.4 °F 74% 30.16 in 10.0 mi WSW 3.5 mph - N/A   Clear
2:55 AM 26.6 °F 19.1 °F 19.4 °F 74% 30.16 in 10.0 mi West 6.9 mph - N/A   Clear
3:16 AM 28.4 °F - 21.2 °F 74% 30.17 in 10.0 mi Calm Calm - N/A   Clear
3:35 AM 28.4 °F 22.2 °F 21.2 °F 74% 30.17 in 10.0 mi WNW 5.8 mph - N/A   Clear
3:55 AM 28.4 °F 23.3 °F 21.2 °F 74% 30.16 in 10.0 mi West 4.6 mph - N/A   Clear
4:15 AM 28.4 °F - 21.2 °F 74% 30.16 in 10.0 mi Calm Calm - N/A   Clear
4:35 AM 26.6 °F 19.1 °F 21.2 °F 80% 30.17 in 10.0 mi West 6.9 mph - N/A   Clear
5:15 AM 26.6 °F 19.1 °F 21.2 °F 80% 30.17 in 10.0 mi WNW 6.9 mph - N/A   Clear
5:35 AM 28.4 °F 21.2 °F 23.0 °F 80% 30.18 in 10.0 mi WNW 6.9 mph - N/A   Clear
5:55 AM 26.6 °F 19.1 °F 21.2 °F 80% 30.18 in 10.0 mi WNW 6.9 mph - N/A   Clear
6:15 AM 26.6 °F 19.1 °F 21.2 °F 80% 30.18 in 10.0 mi WNW 6.9 mph - N/A   Clear
6:35 AM 26.6 °F 18.2 °F 21.2 °F 80% 30.19 in 10.0 mi WNW 8.1 mph - N/A   Clear
6:55 AM 26.6 °F - 21.2 °F 80% 30.20 in 10.0 mi Calm Calm - N/A   Clear
7:16 AM 24.8 °F 19.1 °F 21.2 °F 86% 30.20 in 10.0 mi West 4.6 mph - N/A   Clear
7:35 AM 24.8 °F 16.1 °F 21.2 °F 86% 30.20 in 10.0 mi West 8.1 mph - N/A   Clear
8:16 AM 26.6 °F 19.1 °F 23.0 °F 86% 30.20 in 10.0 mi West 6.9 mph - N/A   Clear
8:36 AM 28.4 °F 18.5 °F 24.8 °F 86% 30.20 in 10.0 mi West 11.5 mph - N/A   Clear
8:56 AM 30.2 °F 20.2 °F 24.8 °F 80% 30.20 in 10.0 mi WNW 12.7 mph 19.6 mph N/A   Clear
9:16 AM 30.2 °F 18.9 °F 24.8 °F 80% 30.20 in 10.0 mi WNW 16.1 mph 23.0 mph N/A   Clear
9:36 AM 32.0 °F 21.2 °F 24.8 °F 75% 30.21 in 10.0 mi WNW 16.1 mph 21.9 mph N/A   Clear
9:56 AM 33.8 °F 23.2 °F 24.8 °F 70% 30.20 in 10.0 mi WNW 17.3 mph 23.0 mph N/A   Clear
10:16 AM 33.8 °F 22.8 °F 24.8 °F 70% 30.20 in 10.0 mi WNW 18.4 mph 23.0 mph N/A   Clear
10:36 AM 35.6 °F 24.8 °F 24.8 °F 65% 30.20 in 10.0 mi WNW 19.6 mph - N/A   Clear
10:56 AM 37.4 °F 27.8 °F 24.8 °F 60% 30.20 in 10.0 mi WNW 17.3 mph 21.9 mph N/A   Clear
11:16 AM 39.2 °F 29.8 °F 24.8 °F 56% 30.20 in 10.0 mi WNW 18.4 mph 26.5 mph N/A   Clear
11:36 AM 39.2 °F 29.3 °F 23.0 °F 52% 30.19 in 10.0 mi WNW 20.7 mph 27.6 mph N/A   Clear
11:56 AM 39.2 °F 29.3 °F 23.0 °F 52% 30.19 in 10.0 mi WNW 20.7 mph 27.6 mph N/A   Clear
12:16 PM 41.0 °F 31.9 °F 23.0 °F 49% 30.17 in 10.0 mi WNW 19.6 mph 25.3 mph N/A   Clear
12:36 PM 42.8 °F 34.0 °F 21.2 °F 42% 30.16 in 10.0 mi NW 20.7 mph 29.9 mph N/A   Clear
12:56 PM 42.8 °F 34.0 °F 21.2 °F 42% 30.16 in 10.0 mi WNW 20.7 mph 27.6 mph N/A   Clear
1:15 PM 42.8 °F 33.8 °F 21.2 °F 42% 30.15 in 10.0 mi WNW 21.9 mph 31.1 mph N/A   Clear
1:36 PM 42.8 °F 34.0 °F 21.2 °F 42% 30.15 in 10.0 mi NW 20.7 mph 28.8 mph N/A   Scattered Clouds
1:56 PM 42.8 °F 33.5 °F 21.2 °F 42% 30.15 in 10.0 mi WNW 23.0 mph 32.2 mph N/A   Scattered Clouds
2:16 PM 41.0 °F 31.4 °F 19.4 °F 42% 30.14 in 10.0 mi WNW 21.9 mph 32.2 mph N/A   Scattered Clouds
2:38 PM 39.2 °F 28.0 °F 21.2 °F 49% 30.14 in 10.0 mi NW 26.5 mph 33.4 mph N/A   Scattered Clouds
2:55 PM 39.2 °F 28.5 °F 21.2 °F 49% 30.15 in 10.0 mi WNW 24.2 mph 33.4 mph N/A   Scattered Clouds
3:16 PM 39.2 °F 28.7 °F 19.4 °F 45% 30.15 in 10.0 mi WNW 23.0 mph 34.5 mph N/A   Scattered Clouds
3:36 PM 39.2 °F 29.3 °F 19.4 °F 45% 30.15 in 10.0 mi WNW 20.7 mph 29.9 mph N/A   Scattered Clouds
3:56 PM 39.2 °F 29.6 °F 19.4 °F 45% 30.15 in 10.0 mi WNW 19.6 mph 26.5 mph N/A   Scattered Clouds
4:16 PM 39.2 °F 29.3 °F 19.4 °F 45% 30.15 in 10.0 mi WNW 20.7 mph 26.5 mph N/A   Scattered Clouds
4:35 PM 37.4 °F 27.2 °F 21.2 °F 52% 30.15 in 10.0 mi WNW 19.6 mph 27.6 mph N/A   Scattered Clouds
4:55 PM 37.4 °F 26.1 °F 21.2 °F 52% 30.15 in 10.0 mi WNW 24.2 mph 31.1 mph N/A   Mostly Cloudy
5:15 PM 37.4 °F 26.6 °F 23.0 °F 56% 30.15 in 10.0 mi WNW 21.9 mph 26.5 mph N/A   Overcast
5:35 PM 37.4 °F 27.2 °F 23.0 °F 56% 30.15 in 10.0 mi WNW 19.6 mph 28.8 mph N/A   Overcast
5:55 PM 37.4 °F 26.6 °F 23.0 °F 56% 30.15 in 10.0 mi NW 21.9 mph 27.6 mph N/A   Overcast
6:15 PM 35.6 °F 25.2 °F 24.8 °F 65% 30.16 in 10.0 mi NW 18.4 mph 28.8 mph N/A   Overcast
6:35 PM 35.6 °F 24.8 °F 24.8 °F 65% 30.16 in 10.0 mi WNW 19.6 mph 25.3 mph N/A   Overcast
6:55 PM 35.6 °F 25.2 °F 24.8 °F 65% 30.16 in 10.0 mi NW 18.4 mph 24.2 mph N/A   Overcast
7:15 PM 35.6 °F 25.9 °F 23.0 °F 60% 30.16 in 10.0 mi WNW 16.1 mph 23.0 mph N/A   Overcast
7:35 PM 35.6 °F 25.5 °F 23.0 °F 60% 30.15 in 10.0 mi NW 17.3 mph 24.2 mph N/A   Overcast
8:15 PM 35.6 °F 25.9 °F 23.0 °F 60% 30.15 in 10.0 mi WNW 16.1 mph 20.7 mph N/A   Mostly Cloudy
8:35 PM 33.8 °F 25.3 °F 23.0 °F 65% 30.15 in 10.0 mi WNW 11.5 mph - N/A   Mostly Cloudy
8:56 PM 33.8 °F 25.8 °F 24.8 °F 70% 30.15 in 10.0 mi WNW 10.4 mph - N/A   Overcast
9:15 PM 35.6 °F 25.9 °F 24.8 °F 65% 30.15 in 10.0 mi NW 16.1 mph 21.9 mph N/A   Overcast
9:35 PM 35.6 °F 25.9 °F 23.0 °F 60% 30.15 in 10.0 mi NW 16.1 mph 19.6 mph N/A   Overcast
9:55 PM 33.8 °F 23.9 °F 23.0 °F 65% 30.15 in 10.0 mi NW 15.0 mph - N/A   Overcast
10:15 PM 33.8 °F 26.4 °F 23.0 °F 65% 30.15 in 10.0 mi WNW 9.2 mph - N/A   Overcast
10:35 PM 33.8 °F 24.8 °F 23.0 °F 65% 30.15 in 10.0 mi West 12.7 mph 19.6 mph N/A   Overcast
10:55 PM 32.0 °F 23.6 °F 23.0 °F 69% 30.15 in 10.0 mi West 10.4 mph - N/A   Overcast
11:15 PM 32.0 °F 22.1 °F 21.2 °F 64% 30.15 in 10.0 mi West 13.8 mph 19.6 mph N/A   Overcast
11:35 PM 30.2 °F 19.8 °F 21.2 °F 69% 30.15 in 10.0 mi WNW 13.8 mph 19.6 mph N/A   Overcast
11:55 PM 30.2 °F 19.8 °F 21.2 °F 69% 30.15 in 10.0 mi WNW 13.8 mph 23.0 mph N/A   Overcast